Date String (YYYY-MM-DD hh:mm:ss) UTC,Instrument flags,Ambient pressure (hPa),Sample flow (lpm),Bypass flow (lpm),Sample temperature (°C),Ambient temperature (°C),ASC tube jacket temperature (°C),LED temperature (°C),Box temperature (°C),Sample RH (%),Span deviation,Mass concentration (μg/m³),Mass concentration (μg/m³),Mass concentration (μg/m³)
DateTimeUTC,F1_M11,P_M11,Q1_M11,Q2_M11,T1_M11,T2_M11,T3_M11,T4_M11,T5_M11,U1_M11,ZSPAN_M11,X0_M11,X2_M11,X1_M11
2023-04-27 04:00:00,,0829.4,4.99,0.00,23.9,22.3,00.0,32.4,25.4,22.3,0000.0,0008.94,0003.82,0003.39
2023-04-27 04:01:00,,0829.4,5.00,0.00,23.9,22.3,00.0,32.4,25.4,22.4,0000.0,0009.67,0003.83,0003.40
2023-04-27 04:02:00,,0829.4,5.00,0.00,23.9,22.3,00.0,32.4,25.4,22.4,0000.0,0009.56,0003.86,0003.40
2023-04-27 04:03:00,,0829.4,5.00,0.00,23.9,22.3,00.0,32.4,25.4,22.3,0000.0,0009.48,0003.86,0003.41
2023-04-27 04:04:00,,0829.3,5.00,0.00,23.8,22.3,00.0,32.4,25.4,22.4,0000.0,0009.48,0003.86,0003.41
2023-04-27 04:05:00,,0829.3,5.01,0.00,23.8,22.3,00.0,32.3,25.4,22.5,0000.0,0009.47,0003.85,0003.42
2023-04-27 04:06:00,,0829.3,5.01,0.00,23.8,22.3,00.0,32.3,25.4,22.5,0000.0,0009.14,0003.84,0003.42
2023-04-27 04:07:00,,0829.3,5.01,0.00,23.8,22.3,00.0,32.3,25.3,22.6,0000.0,0008.84,0003.83,0003.42
2023-04-27 04:08:00,,0829.3,5.00,0.00,23.8,22.3,00.0,32.3,25.3,22.5,0000.0,0009.18,0003.80,0003.43
2023-04-27 04:09:00,,0829.3,5.00,0.00,23.8,22.3,00.0,32.3,25.4,22.6,0000.0,0009.05,0003.75,0003.43
2023-04-27 04:10:00,,0829.4,5.00,0.00,23.8,22.3,00.0,32.3,25.3,22.7,0000.0,0008.56,0003.73,0003.43
2023-04-27 04:11:00,,0829.4,5.00,0.00,23.8,22.2,00.0,32.3,25.3,22.7,0000.0,0008.47,0003.73,0003.43
2023-04-27 04:12:00,,0829.3,5.00,0.00,23.8,22.2,00.0,32.3,25.3,22.7,0000.0,0007.92,0003.75,0003.44
2023-04-27 04:13:00,,0829.3,5.00,0.00,23.8,22.2,00.0,32.3,25.3,22.7,0000.0,0007.28,0003.77,0003.44
2023-04-27 04:14:00,,0829.4,4.99,0.00,23.8,22.2,00.0,32.3,25.2,22.7,0000.0,0007.19,0003.77,0003.44
2023-04-27 04:15:00,,0829.4,4.99,0.00,23.8,22.2,00.0,32.3,25.3,22.7,0000.0,0007.21,0003.79,0003.45
2023-04-27 04:16:00,,0829.4,5.00,0.00,23.8,22.2,00.0,32.2,25.3,22.6,0000.0,0007.20,0003.77,0003.45
2023-04-27 04:17:00,,0829.4,5.01,0.00,23.8,22.3,00.0,32.2,25.3,22.6,0000.0,0007.09,0003.76,0003.44
2023-04-27 04:18:00,,0829.4,5.01,0.00,23.7,22.3,00.0,32.2,25.3,22.6,0000.0,0006.89,0003.73,0003.43
2023-04-27 04:19:00,,0829.4,5.00,0.00,23.7,22.2,00.0,32.2,25.3,22.7,0000.0,0006.15,0003.75,0003.43
2023-04-27 04:20:00,,0829.4,5.01,0.00,23.7,22.2,00.0,32.2,25.3,22.7,0000.0,0006.65,0003.77,0003.43
2023-04-27 04:21:00,,0829.3,5.00,0.00,23.7,22.2,00.0,32.2,25.2,22.6,0000.0,0008.36,0003.77,0003.43
2023-04-27 04:22:00,,0829.3,5.00,0.00,23.7,22.2,00.0,32.2,25.2,22.6,0000.0,0008.40,0003.79,0003.43
2023-04-27 04:23:00,,0829.4,4.99,0.00,23.7,22.2,00.0,32.2,25.2,22.6,0000.0,0008.37,0003.77,0003.42
2023-04-27 04:24:00,,0829.3,5.00,0.00,23.7,22.2,00.0,32.2,25.2,22.6,0000.0,0008.35,0003.74,0003.41
2023-04-27 04:25:00,,0829.3,5.00,0.00,23.7,22.2,00.0,32.2,25.3,22.5,0000.0,0008.36,0003.74,0003.40
2023-04-27 04:26:00,,0829.2,5.00,0.00,23.7,22.2,00.0,32.2,25.2,22.5,0000.0,0008.35,0003.71,0003.38
2023-04-27 04:27:00,,0829.2,5.00,0.00,23.7,22.3,00.0,32.2,25.3,22.6,0000.0,0008.35,0003.71,0003.37
2023-04-27 04:28:00,,0829.2,5.00,0.00,23.7,22.2,00.0,32.2,25.2,22.7,0000.0,0008.41,0003.72,0003.36
2023-04-27 04:29:00,,0829.2,5.00,0.00,23.7,22.2,00.0,32.2,25.3,22.7,0000.0,0008.48,0003.74,0003.36
2023-04-27 04:30:00,,0829.2,5.00,0.00,23.7,22.3,00.0,32.2,25.3,22.6,0000.0,0008.54,0003.74,0003.34
2023-04-27 04:31:00,,0829.1,5.01,0.00,23.7,22.2,00.0,32.2,25.3,22.6,0000.0,0008.47,0003.73,0003.33
2023-04-27 04:32:00,,0829.1,5.00,0.00,23.7,22.2,00.0,32.2,25.2,22.6,0000.0,0006.88,0003.72,0003.31
2023-04-27 04:33:00,,0829.1,4.99,0.00,23.7,22.2,00.0,32.1,25.2,22.5,0000.0,0007.07,0003.68,0003.29
2023-04-27 04:34:00,,0829.1,4.99,0.00,23.7,22.1,00.0,32.1,25.2,22.5,0000.0,0006.96,0003.65,0003.27
2023-04-27 04:35:00,,0829.1,5.00,0.00,23.7,22.1,00.0,32.1,25.2,22.6,0000.0,0006.91,0003.65,0003.26
2023-04-27 04:36:00,,0829.1,5.01,0.00,23.7,22.1,00.0,32.1,25.2,22.6,0000.0,0006.96,0003.66,0003.26
2023-04-27 04:37:00,,0829.1,5.00,0.00,23.7,22.1,00.0,32.1,25.2,22.6,0000.0,0007.13,0003.70,0003.25
2023-04-27 04:38:00,,0829.0,5.00,0.00,23.6,22.1,00.0,32.1,25.2,22.6,0000.0,0007.14,0003.71,0003.25
2023-04-27 04:39:00,,0829.0,5.00,0.00,23.6,22.1,00.0,32.1,25.2,22.6,0000.0,0007.08,0003.69,0003.25
2023-04-27 04:40:00,,0828.9,4.99,0.00,23.6,22.0,00.0,32.1,25.1,22.6,0000.0,0007.11,0003.68,0003.25
2023-04-27 04:41:00,,0828.9,4.99,0.00,23.6,22.0,00.0,32.1,25.1,22.6,0000.0,0006.92,0003.66,0003.24
2023-04-27 04:42:00,,0829.0,5.00,0.00,23.6,22.1,00.0,32.1,25.1,22.6,0000.0,0006.73,0003.65,0003.24
2023-04-27 04:43:00,,0829.0,5.01,0.00,23.6,22.1,00.0,32.1,25.1,22.6,0000.0,0006.44,0003.66,0003.24
2023-04-27 04:44:00,,0829.0,5.00,0.00,23.6,22.1,00.0,32.1,25.1,22.5,0000.0,0006.38,0003.68,0003.23
2023-04-27 04:45:00,,0828.9,5.00,0.00,23.6,22.1,00.0,32.1,25.1,22.5,0000.0,0006.39,0003.69,0003.23
2023-04-27 04:46:00,,0828.9,5.00,0.00,23.6,22.1,00.0,32.1,25.1,22.4,0000.0,0006.44,0003.69,0003.22
2023-04-27 04:47:00,,0828.9,5.01,0.00,23.6,22.1,00.0,32.1,25.1,22.4,0000.0,0006.32,0003.65,0003.21
2023-04-27 04:48:00,,0828.9,5.01,0.00,23.6,22.1,00.0,32.0,25.1,22.4,0000.0,0006.08,0003.60,0003.20
2023-04-27 04:49:00,,0828.9,5.00,0.00,23.6,22.1,00.0,32.0,25.1,22.4,0000.0,0006.09,0003.58,0003.18
2023-04-27 04:50:00,,0828.9,4.99,0.00,23.6,22.0,00.0,32.0,25.1,22.5,0000.0,0007.25,0003.58,0003.17
2023-04-27 04:51:00,,0828.8,4.99,0.00,23.6,22.0,00.0,32.0,25.1,22.5,0000.0,0007.20,0003.57,0003.17
2023-04-27 04:52:00,,0828.8,5.00,0.00,23.5,22.0,00.0,32.0,25.1,22.6,0000.0,0007.25,0003.57,0003.17
2023-04-27 04:53:00,,0828.8,5.00,0.00,23.5,22.0,00.0,32.0,25.1,22.6,0000.0,0007.28,0003.57,0003.16
2023-04-27 04:54:00,,0828.8,5.00,0.00,23.5,22.0,00.0,32.0,25.1,22.5,0000.0,0007.34,0003.57,0003.16
2023-04-27 04:55:00,,0828.7,5.01,0.00,23.5,22.0,00.0,32.0,25.1,22.5,0000.0,0007.28,0003.55,0003.16
2023-04-27 04:56:00,,0828.7,5.01,0.00,23.6,22.0,00.0,32.0,25.1,22.5,0000.0,0007.39,0003.58,0003.15
2023-04-27 04:57:00,,0828.7,4.99,0.00,23.6,22.1,00.0,32.0,25.1,22.6,0000.0,0007.35,0003.56,0003.15
2023-04-27 04:58:00,,0828.7,4.99,0.00,23.6,22.1,00.0,32.0,25.2,22.7,0000.0,0007.28,0003.55,0003.16
2023-04-27 04:59:00,,0828.7,5.01,0.00,23.6,22.2,00.0,32.0,25.2,22.7,0000.0,0007.36,0003.57,0003.16
